Date String (YYYY-MM-DD hh:mm:ss) UTC,Instrument flags,absolute air pressure of the measurement (hPa),sample flow rate (lpm),inlet stack bypass flow (lpm),air temperature of the measurement (°C),ambient temperature measured by the external sensor (°C),aerosol sample conditioner tube jacket temperature (°C),OPC LED temperature (°C),internal box temperature (°C),relative humidity of the measurement (%),span deviation,mass concentration of particles derived from Lorenz-Mie calculation of OPC scattering (μg/m³),mass concentration of particles derived from Lorenz-Mie calculation of OPC scattering (μg/m³),mass concentration of particles derived from Lorenz-Mie calculation of OPC scattering (μg/m³)
DateTimeUTC,F1_M11,P_M11,Q1_M11,Q2_M11,T1_M11,T2_M11,T3_M11,T4_M11,T5_M11,U1_M11,ZSPAN_M11,X0_M11,X2_M11,X1_M11
2023-12-13 00:00:00,SystemResetWarning,0835.2,5.00,000.00,019.7,018.8,000.0,028.0,021.0,20.8,0000.0,0010.84,0006.47,0005.88
2023-12-13 00:01:00,SystemResetWarning,0835.0,5.00,000.00,019.7,018.8,000.0,028.0,021.0,20.8,0000.0,0011.40,0006.49,0005.89
2023-12-13 00:02:00,SystemResetWarning,0834.7,5.00,000.00,019.7,018.8,000.0,028.0,021.0,20.8,0000.0,0011.40,0006.49,0005.90
2023-12-13 00:03:00,SystemResetWarning,0834.7,5.00,000.00,019.7,018.8,000.0,028.0,021.0,20.8,0000.0,0011.48,0006.53,0005.92
2023-12-13 00:04:00,SystemResetWarning,0835.1,5.00,000.00,019.7,018.8,000.0,028.0,021.0,20.8,0000.0,0011.67,0006.57,0005.95
2023-12-13 00:05:00,SystemResetWarning,0835.4,5.00,000.00,019.7,018.8,000.0,028.0,021.0,20.8,0000.0,0011.67,0006.58,0005.99
2023-12-13 00:06:00,SystemResetWarning,0835.3,5.00,000.00,019.7,018.8,000.0,028.0,021.0,20.8,0000.0,0012.93,0006.65,0006.02
2023-12-13 00:07:00,SystemResetWarning,0834.9,5.01,000.00,019.7,018.8,000.0,028.0,021.0,20.8,0000.0,0013.18,0006.71,0006.06
2023-12-13 00:08:00,SystemResetWarning,0834.9,5.01,000.00,019.7,018.8,000.0,028.0,021.0,20.8,0000.0,0013.38,0006.75,0006.09
2023-12-13 00:09:00,SystemResetWarning,0835.0,4.99,000.00,019.7,018.8,000.0,028.0,020.9,20.8,0000.0,0013.46,0006.81,0006.12
2023-12-13 00:10:00,SystemResetWarning,0835.0,4.99,000.00,019.7,018.8,000.0,028.0,021.0,20.8,0000.0,0012.99,0006.83,0006.14
2023-12-13 00:11:00,SystemResetWarning,0835.0,4.99,000.00,019.7,018.8,000.0,028.0,020.9,20.8,0000.0,0012.92,0006.86,0006.17
2023-12-13 00:12:00,SystemResetWarning,0835.0,5.01,000.00,019.7,018.8,000.0,028.0,020.9,20.8,0000.0,0012.68,0006.85,0006.19
2023-12-13 00:13:00,SystemResetWarning,0835.0,5.01,000.00,019.7,018.8,000.0,028.0,020.9,20.8,0000.0,0012.85,0006.86,0006.22
2023-12-13 00:14:00,SystemResetWarning,0835.0,4.99,000.00,019.7,018.8,000.0,028.0,020.9,20.8,0000.0,0013.09,0006.87,0006.26
2023-12-13 00:15:00,SystemResetWarning,0834.9,4.99,000.00,019.7,018.8,000.0,028.0,021.0,20.8,0000.0,0013.00,0006.89,0006.30
2023-12-13 00:16:00,SystemResetWarning,0835.0,5.00,000.00,019.7,018.8,000.0,028.0,021.0,20.8,0000.0,0012.98,0006.90,0006.32
2023-12-13 00:17:00,SystemResetWarning,0835.0,5.01,000.00,019.7,018.8,000.0,028.0,021.0,20.8,0000.0,0012.19,0006.89,0006.34
2023-12-13 00:18:00,SystemResetWarning,0835.0,5.00,000.00,019.7,018.8,000.0,028.0,020.9,20.8,0000.0,0011.85,0006.87,0006.34
2023-12-13 00:19:00,SystemResetWarning,0835.0,5.00,000.00,019.7,018.8,000.0,028.0,021.0,20.8,0000.0,0011.76,0006.90,0006.36
2023-12-13 00:20:00,SystemResetWarning,0835.1,5.00,000.00,019.7,018.8,000.0,028.0,021.0,20.8,0000.0,0011.28,0006.88,0006.38
2023-12-13 00:21:00,SystemResetWarning,0835.1,5.01,000.00,019.7,018.8,000.0,028.0,021.0,20.8,0000.0,0011.23,0006.90,0006.40
2023-12-13 00:22:00,SystemResetWarning,0835.1,5.00,000.00,019.7,018.8,000.0,028.0,021.0,20.8,0000.0,0011.26,0006.91,0006.41
2023-12-13 00:23:00,SystemResetWarning,0835.2,5.01,000.00,019.7,018.8,000.0,028.0,020.9,20.8,0000.0,0011.10,0006.96,0006.44
2023-12-13 00:24:00,SystemResetWarning,0835.2,5.00,000.00,019.7,018.8,000.0,028.0,021.0,20.8,0000.0,0011.23,0007.02,0006.48
2023-12-13 00:25:00,SystemResetWarning,0835.1,4.99,000.00,019.7,018.8,000.0,028.0,021.0,20.8,0000.0,0010.77,0007.04,0006.50
2023-12-13 00:26:00,SystemResetWarning,0835.2,5.00,000.00,019.7,018.8,000.0,028.0,020.9,20.8,0000.0,0010.86,0007.07,0006.50
2023-12-13 00:27:00,SystemResetWarning,0835.2,5.00,000.00,019.7,018.8,000.0,028.0,020.9,20.8,0000.0,0011.11,0007.16,0006.54
2023-12-13 00:28:00,SystemResetWarning,0835.1,5.00,000.00,019.7,018.8,000.0,028.0,021.0,20.8,0000.0,0010.96,0007.18,0006.57
2023-12-13 00:29:00,SystemResetWarning,0835.1,5.00,000.00,019.7,018.8,000.0,028.0,020.9,20.8,0000.0,0010.94,0007.21,0006.60
2023-12-13 00:30:00,SystemResetWarning,0835.2,5.00,000.00,019.7,018.9,000.0,028.0,021.0,20.8,0000.0,0010.89,0007.23,0006.64
2023-12-13 00:31:00,SystemResetWarning,0835.2,5.01,000.00,019.7,018.8,000.0,028.0,020.9,20.8,0000.0,0011.20,0007.32,0006.67
2023-12-13 00:32:00,SystemResetWarning,0835.2,5.00,000.00,019.7,018.8,000.0,028.0,020.9,20.8,0000.0,0011.18,0007.34,0006.71
2023-12-13 00:33:00,SystemResetWarning,0835.2,5.00,000.00,019.7,018.8,000.0,028.0,021.0,20.8,0000.0,0011.02,0007.33,0006.75
2023-12-13 00:34:00,SystemResetWarning,0835.3,5.00,000.00,019.7,018.8,000.0,028.0,020.9,20.8,0000.0,0010.73,0007.33,0006.79
2023-12-13 00:35:00,SystemResetWarning,0835.3,5.00,000.00,019.7,018.8,000.0,028.0,020.9,20.8,0000.0,0010.59,0007.34,0006.80
2023-12-13 00:36:00,SystemResetWarning,0835.2,5.00,000.00,019.7,018.8,000.0,028.0,020.9,20.8,0000.0,0010.66,0007.36,0006.83
2023-12-13 00:37:00,SystemResetWarning,0835.2,4.99,000.00,019.7,018.9,000.0,028.0,020.9,20.8,0000.0,0010.81,0007.41,0006.87
2023-12-13 00:38:00,SystemResetWarning,0835.3,4.99,000.00,019.7,018.9,000.0,028.0,020.9,20.9,0000.0,0010.59,0007.36,0006.88
2023-12-13 00:39:00,SystemResetWarning,0835.3,4.99,000.00,019.7,018.8,000.0,028.0,021.0,20.9,0000.0,0010.49,0007.36,0006.90
2023-12-13 00:40:00,SystemResetWarning,0835.3,5.00,000.00,019.7,018.8,000.0,028.0,021.0,20.9,0000.0,0011.34,0007.41,0006.93
2023-12-13 00:41:00,SystemResetWarning,0835.3,5.00,000.00,019.7,018.8,000.0,028.0,021.0,20.9,0000.0,0011.42,0007.41,0006.95
2023-12-13 00:42:00,SystemResetWarning,0835.3,5.00,000.00,019.7,018.8,000.0,028.0,021.0,20.9,0000.0,0011.22,0007.43,0006.98
2023-12-13 00:43:00,SystemResetWarning,0835.2,5.00,000.00,019.7,018.8,000.0,028.0,021.0,20.9,0000.0,0011.23,0007.44,0007.00
2023-12-13 00:44:00,SystemResetWarning,0835.2,5.01,000.00,019.7,018.8,000.0,028.0,021.0,20.9,0000.0,0011.37,0007.49,0007.03
2023-12-13 00:45:00,SystemResetWarning,0835.2,5.00,000.00,019.7,018.8,000.0,028.0,020.9,20.9,0000.0,0011.44,0007.53,0007.05
2023-12-13 00:46:00,SystemResetWarning,0835.2,5.01,000.00,019.7,018.8,000.0,028.0,020.9,20.9,0000.0,0011.49,0007.57,0007.08
2023-12-13 00:47:00,SystemResetWarning,0835.3,5.00,000.00,019.7,018.8,000.0,028.0,020.9,20.9,0000.0,0011.56,0007.63,0007.12
2023-12-13 00:48:00,SystemResetWarning,0835.3,5.00,000.00,019.7,018.8,000.0,028.0,021.0,20.9,0000.0,0011.49,0007.65,0007.14
2023-12-13 00:49:00,SystemResetWarning,0835.2,5.00,000.00,019.7,018.8,000.0,028.0,021.0,21.0,0000.0,0011.61,0007.73,0007.18
2023-12-13 00:50:00,SystemResetWarning,0835.3,5.00,000.00,019.7,018.8,000.0,028.0,020.9,21.0,0000.0,0012.06,0007.82,0007.24
2023-12-13 00:51:00,SystemResetWarning,0835.4,5.00,000.00,019.7,018.8,000.0,028.0,020.9,20.9,0000.0,0011.45,0007.86,0007.28
2023-12-13 00:52:00,SystemResetWarning,0835.5,5.00,000.00,019.7,018.8,000.0,028.0,020.9,20.9,0000.0,0011.18,0007.88,0007.29
2023-12-13 00:53:00,SystemResetWarning,0835.4,4.99,000.00,019.7,018.8,000.0,028.0,020.9,20.9,0000.0,0011.13,0007.86,0007.31
2023-12-13 00:54:00,SystemResetWarning,0835.4,5.00,000.00,019.7,018.8,000.0,028.0,020.9,20.9,0000.0,0011.04,0007.87,0007.33
2023-12-13 00:55:00,SystemResetWarning,0835.4,5.00,000.00,019.7,018.8,000.0,028.0,020.9,20.9,0000.0,0011.07,0007.91,0007.36
2023-12-13 00:56:00,SystemResetWarning,0835.4,5.00,000.00,019.7,018.8,000.0,028.0,020.9,20.9,0000.0,0011.09,0007.93,0007.38
2023-12-13 00:57:00,SystemResetWarning,0835.5,5.00,000.00,019.7,018.8,000.0,028.0,020.9,21.0,0000.0,0011.49,0007.94,0007.40
2023-12-13 00:58:00,SystemResetWarning,0835.5,5.00,000.00,019.7,018.8,000.0,028.0,020.9,21.0,0000.0,0011.77,0007.92,0007.41
2023-12-13 00:59:00,SystemResetWarning,0835.5,5.00,000.00,019.7,018.8,000.0,028.0,020.9,21.0,0000.0,0012.66,0007.95,0007.44
